QPF
0.00 0.00 0.00 0.00 0.00 0.00 0.00 0.00 0.00 0.00 0.00 0.00 0.00 0.00 0.00 0.00 0.00 0.00 0.00 0.00 0.01 0.01
0.00 0.00 0.00 0.00 0.00 0.00 0.00 0.00 0.00 0.00 0.00 0.00 0.00 0.00 0.00 0.00 0.00 0.00 0.00 0.00 0.00 0.00
0.00 0.00 0.00 0.00 0.00 0.00 0.00 0.00 0.00 0.00 0.00 0.00 0.00 0.00 0.00 0.00 0.00 0.00 0.00 0.00 0.00 0.00
0.00 0.00 0.00 0.00 0.00 0.00 0.00 0.00 0.00 0.00 0.00 0.00 0.00 0.00 0.00 0.00 0.00 0.00 0.00 0.00 0.00 0.00
0.00 0.00 0.00 0.00 0.00 0.00 0.00 0.00 0.00 0.00 0.00 0.00 0.00 0.00 0.00 0.00 0.00 0.00 0.00 0.00 0.00 0.00
0.00 0.00 0.00 0.00 0.00 0.00 0.00 0.00 0.00 0.00 0.00 0.00 0.00 0.00 0.00 0.00 0.00 0.00 0.00 0.00 0.00 0.00
0.00 0.00 0.00 0.00 0.00 0.00 0.00 0.00 0.00 0.00 0.00 0.00 0.00 0.00 0.00 0.00 0.00 0.00 0.00 0.00 0.00 0.00
0.00 0.00 0.00 0.00 0.00 0.00 0.00 0.00 0.00 0.00 0.00 0.00 0.00 0.00 0.00 0.00 0.00 0.00 0.00 0.00 0.00 0.00
0.00 0.00 0.00 0.00 0.00 0.00 0.00 0.00 0.00 0.00 0.00 0.00 0.00 0.00 0.00 0.00 0.00 0.00 0.00 0.00 0.00 0.00
0.00 0.00 0.00 0.00 0.00 0.00 0.00 0.00 0.00 0.00 0.00 0.00 0.00 0.00 0.00 0.00 0.00 0.00 0.00 0.00 0.00 0.00
0.00 0.00 0.00 0.00 0.00 0.00 0.00 0.00 0.00 0.00 0.00 0.00 0.00 0.00 0.00 0.00 0.00 0.00 0.00 0.00 0.00 0.00
0.00 0.00 0.00 0.00 0.00 0.00 0.00 0.00 0.00 0.00 0.00 0.00 0.00 0.00 0.00 0.00 0.00 0.00 0.00 0.00 0.00 0.00
0.00 0.00 0.00 0.00 0.00 0.00 0.00 0.00 0.00 0.00 0.00 0.00 0.00 0.00 0.00 0.00 0.00 0.00 0.00 0.00 0.00 0.00
0.00 0.00 0.00 0.00 0.00 0.00 0.00 0.00 0.00 0.00 0.00 0.00 0.00 0.00 0.00 0.00 0.00 0.00 0.00 0.00 0.00 0.00
MSLP
1019.33 1019.22 1019.15 1019.08 1018.97 1018.73 1018.32 1017.92 1017.44 1016.96 1016.64 1016.60 1016.39 1016.39 1016.21 1016.23 1016.18 1016.06 1015.71 1015.45 1015.45 1015.39
1019.61 1019.54 1019.47 1019.33 1019.21 1019.06 1018.80 1018.47 1018.17 1017.93 1017.72 1017.49 1017.14 1016.84 1016.59 1016.46 1016.25 1016.17 1016.06 1015.88 1015.79 1015.40
1019.85 1019.81 1019.77 1019.69 1019.69 1019.54 1019.31 1019.04 1018.75 1018.44 1018.11 1017.76 1017.46 1017.33 1017.15 1016.94 1016.83 1016.66 1016.39 1016.01 1015.66 1015.27
1020.05 1019.97 1019.88 1019.80 1019.67 1019.49 1019.25 1019.01 1018.70 1018.44 1018.18 1017.93 1017.70 1017.41 1017.24 1017.16 1017.04 1016.90 1016.64 1016.19 1015.74 1015.19
1019.80 1019.66 1019.61 1019.62 1019.60 1019.52 1019.39 1019.18 1018.94 1018.67 1018.45 1018.23 1017.99 1017.73 1017.56 1017.39 1017.13 1016.98 1016.74 1016.37 1015.92 1015.40
1019.86 1019.99 1020.01 1019.95 1019.82 1019.64 1019.43 1019.20 1018.94 1018.73 1018.56 1018.33 1018.06 1017.77 1017.55 1017.39 1017.24 1017.03 1016.77 1016.49 1016.11 1015.65
1019.80 1019.88 1019.90 1019.82 1019.67 1019.55 1019.43 1019.26 1019.06 1018.83 1018.60 1018.34 1018.00 1017.63 1017.33 1017.05 1016.89 1016.84 1016.72 1016.48 1016.12 1015.65
1019.61 1019.67 1019.69 1019.65 1019.62 1019.55 1019.42 1019.28 1019.09 1018.89 1018.67 1018.34 1017.91 1017.53 1017.11 1016.89 1016.81 1016.71 1016.45 1016.18 1015.86 1015.45
1019.33 1019.46 1019.63 1019.68 1019.65 1019.58 1019.44 1019.24 1019.01 1018.70 1018.49 1018.23 1017.84 1017.36 1016.85 1016.48 1016.35 1016.27 1016.15 1016.01 1015.60 1015.17
1019.12 1019.28 1019.52 1019.66 1019.65 1019.55 1019.36 1019.21 1018.98 1018.80 1018.43 1018.15 1017.69 1017.10 1016.68 1016.27 1016.02 1016.01 1015.95 1015.72 1015.39 1015.03
1018.94 1019.27 1019.49 1019.46 1019.38 1019.32 1019.15 1019.05 1018.82 1018.61 1018.31 1017.97 1017.47 1016.90 1016.48 1016.11 1016.01 1015.89 1015.70 1015.42 1015.10 1014.85
1018.84 1019.01 1019.12 1019.17 1019.18 1019.01 1019.04 1018.93 1018.68 1018.45 1018.23 1017.98 1017.56 1016.99 1016.41 1016.02 1015.99 1015.85 1015.63 1015.24 1014.89 1014.48
1018.39 1018.75 1019.03 1019.09 1019.00 1018.78 1018.76 1018.64 1018.44 1018.32 1018.14 1017.85 1017.50 1017.01 1016.40 1015.98 1015.78 1015.61 1015.39 1015.02 1014.65 1014.29
1018.33 1018.52 1018.53 1018.60 1018.61 1018.64 1018.56 1018.53 1018.48 1018.30 1018.00 1017.66 1017.30 1016.83 1016.24 1015.75 1015.39 1015.32 1014.94 1014.75 1014.33 1013.87
Thickness
5507 5502 5498 5494 5492 5491 5493 5495 5498 5502 5505 5506 5507 5506 5508 5509 5508 5507 5508 5509 5506 5503
5505 5500 5496 5494 5491 5490 5489 5490 5490 5491 5492 5493 5495 5497 5499 5500 5499 5497 5495 5494 5491 5491
5503 5499 5495 5491 5487 5485 5485 5484 5484 5485 5486 5487 5487 5486 5486 5486 5484 5481 5481 5482 5481 5479
5499 5496 5493 5490 5487 5485 5484 5483 5483 5483 5482 5481 5481 5480 5479 5476 5474 5472 5471 5471 5472 5472
5498 5495 5492 5488 5485 5482 5480 5478 5477 5476 5474 5472 5471 5470 5467 5465 5463 5461 5460 5459 5458 5459
5493 5489 5484 5481 5478 5476 5473 5471 5470 5468 5466 5463 5461 5459 5457 5454 5450 5447 5445 5444 5444 5444
5489 5483 5478 5475 5472 5469 5467 5464 5461 5459 5457 5454 5452 5450 5447 5444 5440 5435 5432 5429 5428 5428
5484 5479 5474 5470 5467 5463 5460 5456 5454 5451 5447 5445 5443 5440 5437 5433 5427 5422 5418 5415 5412 5411
5479 5474 5468 5462 5458 5454 5450 5447 5444 5441 5437 5433 5430 5428 5425 5421 5414 5408 5402 5398 5395 5393
5473 5468 5460 5454 5450 5446 5442 5437 5433 5429 5425 5420 5415 5414 5409 5405 5398 5390 5383 5379 5375 5371
5469 5461 5454 5449 5445 5440 5435 5430 5425 5419 5413 5406 5402 5399 5393 5388 5378 5370 5364 5360 5357 5354
5462 5455 5449 5443 5438 5433 5426 5419 5413 5407 5399 5392 5385 5382 5377 5371 5361 5355 5350 5346 5342 5340
5457 5448 5440 5433 5427 5423 5415 5409 5402 5393 5385 5379 5370 5364 5360 5356 5348 5344 5339 5334 5330 5327
5448 5440 5433 5426 5418 5410 5404 5397 5387 5379 5370 5364 5357 5349 5346 5343 5338 5331 5328 5322 5319 5314